www.pogodaiklimat.ru
ПОГОДА в Стольницах

Архив погоды в Стольницах (Румыния)

Время
(UTC), дата
15 9.06
18 9.06
21 9.06
00 10.06
03 10.06
06 10.06
09 10.06
12 10.06
15 10.06
18 10.06
21 10.06
00 11.06
03 11.06
06 11.06
09 11.06
12 11.06
15 11.06
18 11.06
21 11.06
00 12.06
03 12.06
06 12.06
09 12.06
12 12.06
15 12.06
18 12.06
21 12.06
03 13.06
06 13.06
09 13.06
12 13.06
18 13.06
21 13.06
00 14.06
03 14.06
06 14.06
09 14.06
12 14.06
15 14.06
18 14.06
21 14.06
00 15.06
03 15.06
06 15.06
09 15.06
12 15.06
15 15.06
18 15.06
21 15.06
00 16.06
03 16.06
06 16.06
09 16.06
Ветер
(напр.,м/с)
Видим. Явления Облачность Т
(С)
Тd
(С)
f
(%)
Тe
(С)
Тes
(С)
Комфортность P
(гПа)
Po
(гПа)
Тmin
(С)
Tmax
(С)
R
(мм)
R24
(мм)
S
(см)
ЮЗ 4-7 {8} 20 км 5/5 1000 м
[Cu med, cong]
+33.7 +14.0 31 +35 +37 очень жарко 1006.9 983.6
З 3-5 {7} 20 км 5/0
[Ac lent Ci fib]
+29.2 +15.5 43 +32 +32 душно 1008.1 984.4 +23.2 +34.1
СЗ 2 20 км н/о +23.6 +16.5 64 +27 +27 жарко 1009.4 985.3
СЗ 2 20 км н/о +19.6 +16.1 80 +22 +22 комфорт 1009.6 985.2 1
С 2 20 км н/о +18.1 +16.0 88 +19 +19 1009.2 984.6
СВ 1-2 {3} 20 км ясно +25.3 +17.5 62 +29 +37 душно 1008.8 984.9 +17.5 +29.2
З 3-5 {5} 20 км 4/0
[Ci fib]
+30.8 +16.6 42 +34 +48 очень душно 1008.8 985.2
В 3-6 {6} 20 км 6/3 1000 м
[Cu med, cong Ac lent Ci sp]
+33.7 +16.0 35 +36 +44 очень душно 1006.6 983.3
ЮЗ 4-7 {8} 20 км 4/0
[Ac lent]
+35.6 +12.2 24 +35 +38 очень жарко 1004.0 980.9
Ю 1-2 {5} 20 км 9/8 600 м
[Cb calv Ac lent]
+29.9 +12.7 35 +31 +31 жарко 1003.4 980.0 +25.3 +36.1
СЗ 2 20 км н/о +23.4 +19.4 78 +30 +30 очень душно 1005.2 981.2
СЗ 1 20 км н/о +20.9 +15.7 72 +25 +25 комфорт 1006.2 981.9
С 1 13 км н/о +15.6 +14.6 94 +16 +16 1007.3 982.6
СЗ 2-3 {3} 19 км ясно +23.6 +15.6 61 +27 +33 жарко 1007.5 983.5 +15.1 +30.0
ЮЗ 5-9 {9} 20 км 6/0
[Ac lent Ci fib]
+30.6 +12.4 33 +31 +37 жарко 1007.2 983.7
З 4-10 {10} 20 км 5/5 1000 м
[Cu med, cong]
+32.7 +11.7 28 +33 +39 жарко 1006.1 982.8
З 5-9 {10} 20 км 6/4 1000 м
[Cu med, cong Ac lent]
+32.2 +12.0 29 +32 +34 жарко 1006.7 983.3
З 4-7 {8} 20 км 8/0
[Ac lent Ci sp]
+28.8 +13.1 38 +30 +30 жарко 1007.4 983.8 +23.4 +34.0
З 2 20 км н/о +21.8 +13.4 59 +25 +25 комфорт 1009.4 985.2
Ю 1 20 км н/о +17.2 +13.6 79 +18 +18 1011.3 986.6
СЗ 2 20 км н/о +15.5 +13.0 85 +15 +15 1012.2 987.4
С 1-2 {3} 20 км ясно +22.2 +13.4 57 +25 +33 комфорт 1012.3 988.0 +14.8 +28.8
З 1-3 {5} 20 км 3/0
[Ac lent]
+28.0 +11.2 35 +29 +45 жарко 1011.7 987.9
Ю 3-5 {6} 20 км 8/5 600 м
[Cb calv Ac lent]
+28.7 +12.1 36 +30 +33 жарко 1011.1 987.3
С 1-4 {6} 20 км слаб. ливневой дождь 9/5 600 м
[Cb calv Ac lent]
+28.8 +12.1 36 +30 +31 жарко 1010.0 986.3
ЮЗ 2-3 {6} 20 км 3/0
[Ac lent]
+27.1 +14.0 45 +29 +29 жарко 1010.9 987.0 +22.2 +31.3 0
Ю 1 20 км н/о +21.4 +14.1 63 +24 +24 комфорт 1012.6 988.2
СВ 3 20 км н/о +18.9 +14.8 77 +20 +20 1012.8 988.2 0.2
С 3-5 {5} 20 км 5/4 600 м
[Cb calv Ac lent]
+23.1 +15.7 63 +27 +30 душно 1013.5 989.3 +17.2 +27.1
СЗ 2-5 {6} 20 км 5/4 1000 м
[Cu med, cong Ac lent]
+27.1 +15.3 48 +30 +39 душно 1013.3 989.3
ЮЗ 2-6 {9} 20 км 4/4 1000 м
[Cu med, cong]
+30.8 +14.1 36 +32 +43 жарко 1011.6 987.9 0
ЮЗ 2-4 {4} 3600 м гроза, ливневой дождь 9/9 600 м
[Cb cap]
+22.3 +17.4 74 +27 +27 душно 1008.4 984.2 +22.3 +32.4 2 0
В 8 13 км ливневой дождь н/о +17.8 +16.9 94 +17 +17 1010.3 985.7 25
Ю 1 14 км н/о +16.2 +15.7 97 +17 +17 1011.6 986.8 0.1 0
З 2 800 м туман н/о +16.3 +16.2 99 +16 +16 1011.5 986.7
З 2-4 {5} 16 км слаб. ливневой дождь 10/10 600 м
[Cb calv]
+17.0 +16.3 96 +17 +17 1010.7 986.1 +15.5 +22.1 0.9 28.0 0
З 3-6 {6} 20 км 8/5 600 м
[Cb calv Ac lent]
+20.7 +15.7 73 +24 +28 комфорт 1010.6 986.3 0.1
ЮЗ 5-9 {9} 20 км {ливн. дождь} 6/4 600 м
[Cb calv Ac lent]
+25.2 +15.1 54 +28 +32 жарко 1009.2 985.3 0
СВ 4-5 {5} 20 км в посл. час гроза 8/5 600 м
[Cb calv Ac lent]
+21.4 +17.5 78 +25 +26 комфорт 1010.4 986.1 5
В 2-3 {5} 20 км {гроза} 6/4 600 м
[Cb calv Ac lent]
+18.6 +15.5 82 +20 +20 1012.1 987.6 +14.7 +26.4 0
СВ 1 20 км н/о +15.4 +14.5 94 +16 +16 1013.0 988.1
СВ 2 20 км н/о +14.1 +12.5 90 +14 +14 1012.7 987.8 0
С 2 20 км н/о +12.5 +11.7 95 +11 +11 1013.2 988.0
С 3-3 {4} 20 км 3/0
[Ac lent]
+19.5 +13.3 67 +21 +26 комфорт 1012.5 988.0 +12.4 +19.5 4.8 0
штиль 0-1 {4} 20 км 5/5 1000 м
[Cu med, cong]
+23.7 +12.0 48 +25 +37 комфорт 1012.3 988.1
З 1-3 {5} 20 км 5/5 1000 м
[Cu med, cong]
+25.3 +10.5 39 +26 +36 жарко 1011.2 987.2 0
З 1-5 {5} 20 км 4/4 1000 м
[Cu med, cong]
+27.3 +8.6 31 +27 +31 жарко 1010.1 986.2
З 1-2 {3} 20 км ясно +25.3 +9.5 37 +26 +26 жарко 1010.2 986.2 +19.5 +27.8 0
З 1 20 км н/о +17.8 +11.6 67 +19 +19 1011.6 986.9
С 3 20 км н/о +15.3 +12.9 86 +15 +15 1011.8 987.0 0
СВ 3 20 км н/о +16.0 +13.1 83 +16 +16 1011.9 987.1
В 5-7 {7} 20 км ясно +20.6 +13.4 63 +23 +27 комфорт 1012.2 987.8 +14.5 +25.2 0
В 2-4 {6} 20 км ясно +25.9 +13.9 47 +28 +46 жарко 1011.4 987.4
Местоположение метеостанции Стольницы (Румыния): широта 44.57 долгота 24.78 высота над уровнем моря 209 м.
В архиве по умолчанию представлена погода в Стольницах за последнюю неделю. Архивные данные за месяц целиком и за предыдущие месяцы, начиная с января 2011 года, Вы можете получить, выбрав интересующий диапазон дат из раскрывающегося списка и нажав кнопку "Найти!".
*Определитесь, кто Вы:
Внимание! Время в таблицах - всемирное. Для получения местного времени необходимо прибавить поправку, которая равна 2 ч.
Некоторые строки с данными для отдельных станций могут быть выделены курсивом. Это означает, что фактические данные отсутствуют по различным причинам, а приведенные значения являются расчетными модельными данными для данного пункта наблюдений.
Смотрите также архив погоды в соседних городах и на ближайших метеорологических станциях:
Партнеры нашего сайта:      
Пояснения к столбцам:
  • Ветер - указаны скорость ветра в м/с - средняя за 10 мин, порывы в срок и между сроками (в фигурных скобках) и направление, откуда дует ветер: С - северный,
  • СВ - северо-восточный, В - восточный, ЮВ - юго-восточный, Ю - южный, ЮЗ - юго-западный, З - западный, СЗ - северо-западный.
  • Видимость - горизонтальная дальность видимости в метрах или километрах. При видимости от 1 до 10 км при отсутствии осадков обычно наблюдается дымка, при ухудшении видимости до 1 км и менее - туман. В сухую погоду видимость может ухудшаться дымом, пылью или мглою.
  • Явления - указаны атмосферные явления, наблюдавшиеся в срок или в последний час перед сроком; фигурными скобками обозначены явления, наблюдавшиеся между сроками (за 1-3 часа до срока); квадратными скобками обозначены град или гололедные отложения с указанием их диаметра в мм.
  • Облачность - указаны через наклонную черту общая и нижняя облачность в баллах и высота нижней границы облаков в метрах; квадратными скобками обозначены формы облаков: Ci - перистые, Cs - перисто-слоистые, Cc - перисто-кучевые, Ac - высококучевые, As - высокослоистые, Sc - слоисто-кучевые, Ns - слоисто-дождевые, Cu - кучевые, Cb - кучево-дождевые. Подробнее классификацию облаков см. в Атласе облаков (PDF).
  • T - Температура воздуха - температура, измеренная на высоте 2 м над землей.
  • Td - Температура точки росы - температура, при понижении до которой содержащийся в воздухе водяной пар достигнет насыщения.
  • f - Относительная влажность воздуха - влажноcть воздуха, измеренная на высоте 2 м над землей.
  • Te - Эффективная температура - температура, которую ощущает одетый по сезону человек в тени. Характеристика душности погоды. При расчете учитывается влияние влажности воздуха и скорости ветра на теплоощущения человека.
  • Tes - Эффективная температура на солнце - температура, которую ощущает человек, с поправкой на солнечный нагрев. Характеристика знойности погоды. Зависит от высоты солнца над горизонтом, облачности и скорости ветра. Ночью, в пасмурную погоду, а также при ветре 12 м/с и более поправка равна нулю.
  • P - Атмосферное давление - приведенное к уровню моря атмосферное давление.
  • Po - Атмосферное давление - измеренное на уровне метеостанции атмосферное давление.
  • Tmin - Минимальная температура - минимум температуры воздуха на высоте 2 м над землей.
  • Tmax - Максимальная температура - максимум температуры воздуха на высоте 2 м над землей.
  • R - Количество осадков - Количество выпавших осадков за период времени, мм. При наведении курсора мыши на число - период времени, за который выпало указанное количество осадков.
  • R24 - Количество осадков - Количество выпавших осадков за 24 часа, мм.
  • S - Снежный покров - Высота снежного покрова, см. При наведении курсора мыши на число - состояние снежного покрова и степень покрытия местности в баллах.